Total_Precipitation_Accumulation
1.10 1.23 1.28 1.24 1.28 1.38 1.50 1.57 1.61 1.53 1.47 1.37 1.14 1.06 1.06 1.04 1.09 1.01 1.04 0.87 0.61 0.53 0.52 0.53 0.52 0.55 0.67 0.85 1.02 1.18 1.40 1.57 1.69 1.80 1.88 2.00 2.13 2.25
1.26 1.39 1.36 1.29 1.32 1.38 1.51 1.68 1.79 1.77 1.55 1.26 1.15 1.17 1.21 1.13 1.11 0.95 0.91 0.92 0.74 0.61 0.54 0.53 0.52 0.53 0.57 0.70 0.84 0.97 1.12 1.23 1.36 1.48 1.55 1.61 1.67 1.82
1.24 1.32 1.38 1.39 1.41 1.44 1.53 1.61 1.77 1.93 1.76 1.42 1.35 1.40 1.46 1.43 1.29 1.10 0.93 0.89 0.79 0.70 0.59 0.54 0.53 0.56 0.62 0.67 0.78 0.88 0.94 1.00 1.12 1.25 1.36 1.45 1.50 1.56
1.33 1.36 1.30 1.35 1.47 1.46 1.54 1.55 1.64 1.85 1.78 1.62 1.58 1.61 1.65 1.60 1.53 1.31 1.05 0.93 0.88 0.78 0.61 0.54 0.53 0.52 0.54 0.55 0.63 0.76 0.88 0.94 0.97 0.99 1.06 1.18 1.32 1.43
1.34 1.34 1.30 1.37 1.39 1.47 1.53 1.47 1.46 1.56 1.69 1.71 1.72 1.80 1.84 1.72 1.59 1.43 1.28 1.20 0.97 0.86 0.74 0.62 0.58 0.56 0.56 0.56 0.59 0.67 0.79 0.91 1.00 1.06 1.07 1.11 1.15 1.22
1.33 1.27 1.27 1.29 1.30 1.35 1.40 1.43 1.47 1.57 1.68 1.72 1.80 1.98 2.00 2.03 1.93 1.67 1.54 1.47 1.21 0.92 0.88 0.78 0.71 0.65 0.59 0.54 0.55 0.61 0.70 0.85 1.01 1.10 1.15 1.21 1.25 1.25
1.47 1.37 1.28 1.25 1.27 1.28 1.23 1.28 1.42 1.54 1.54 1.58 1.65 1.84 1.93 2.05 2.00 1.77 1.61 1.61 1.46 1.14 1.00 0.90 0.86 0.80 0.77 0.73 0.64 0.60 0.66 0.78 0.96 1.09 1.16 1.25 1.35 1.40
1.59 1.52 1.38 1.26 1.22 1.16 1.07 1.09 1.16 1.22 1.33 1.45 1.46 1.60 1.78 1.88 2.01 2.07 1.92 1.78 1.69 1.48 1.40 1.28 1.11 1.07 0.95 0.84 0.77 0.63 0.58 0.64 0.74 0.87 1.01 1.15 1.27 1.43
1.52 1.51 1.31 1.19 1.25 1.16 1.15 1.08 1.03 1.07 1.13 1.30 1.38 1.41 1.62 1.81 2.02 2.18 2.18 2.09 1.94 1.81 1.78 1.69 1.41 1.23 1.07 0.95 0.87 0.69 0.57 0.52 0.54 0.61 0.70 0.85 0.97 1.09
1.33 1.37 1.34 1.26 1.26 1.30 1.25 1.15 1.04 1.03 1.07 1.07 1.10 1.24 1.51 1.88 2.09 2.12 2.22 2.22 2.12 2.00 1.94 1.89 1.67 1.47 1.28 1.14 1.04 0.80 0.66 0.57 0.54 0.53 0.55 0.61 0.73 0.85
1.21 1.24 1.24 1.19 1.23 1.17 1.13 1.09 1.07 1.06 0.99 0.98 0.98 1.06 1.21 1.44 1.80 1.92 1.97 1.93 1.84 1.63 1.51 1.56 1.53 1.51 1.45 1.32 1.16 1.01 0.84 0.71 0.65 0.64 0.62 0.61 0.67 0.76
1.23 1.21 1.14 1.04 1.00 0.95 0.95 1.03 0.99 0.96 1.03 1.01 0.94 0.90 0.88 1.03 1.33 1.53 1.61 1.63 1.53 1.48 1.24 1.21 1.22 1.28 1.40 1.29 1.15 1.08 1.01 0.98 0.88 0.76 0.68 0.66 0.74 0.72
1.24 1.24 1.15 1.05 0.89 0.84 0.84 0.90 0.93 0.93 1.01 1.04 1.00 0.98 0.99 1.01 1.09 1.25 1.45 1.54 1.47 1.28 1.15 1.15 1.14 1.15 1.17 1.13 1.07 1.00 1.00 1.04 1.01 0.95 0.89 0.88 0.91 0.89
1.26 1.24 1.24 1.08 0.90 0.85 0.81 0.80 0.82 0.79 0.82 0.92 0.91 0.87 0.88 0.88 0.92 1.07 1.27 1.40 1.48 1.32 1.20 1.24 1.22 1.14 1.09 0.97 0.89 0.83 0.84 0.96 1.09 1.18 1.14 1.13 1.11 1.18
1.20 1.23 1.17 1.05 0.88 0.77 0.79 0.77 0.71 0.69 0.76 0.84 0.85 0.78 0.74 0.79 0.89 1.03 1.17 1.30 1.36 1.30 1.18 1.19 1.21 1.17 1.12 0.99 0.82 0.75 0.77 0.83 0.92 1.10 1.27 1.34 1.30 1.30
1.22 1.19 1.08 1.02 0.89 0.81 0.82 0.75 0.68 0.74 0.82 0.83 0.86 0.86 0.84 0.86 0.90 0.96 1.06 1.16 1.22 1.16 1.08 1.08 1.15 1.22 1.13 0.97 0.92 0.82 0.78 0.80 0.78 0.88 1.13 1.39 1.58 1.68
1.44 1.37 1.26 1.16 1.02 0.93 0.91 0.92 0.92 0.98 0.95 0.94 0.98 1.03 1.01 0.95 0.92 0.96 1.09 1.13 1.08 1.01 0.99 1.04 1.11 1.23 1.22 1.07 0.98 0.89 0.88 0.82 0.75 0.79 0.94 1.11 1.33 1.58
1.33 1.27 1.23 1.15 1.07 1.06 1.09 1.10 1.09 1.09 1.06 1.07 1.08 1.12 1.12 1.04 0.96 0.96 1.06 1.12 1.06 0.99 0.96 0.99 1.14 1.29 1.30 1.17 0.88 0.77 0.78 0.77 0.78 0.89 0.98 0.96 1.00 1.10
1.26 1.27 1.24 1.21 1.14 1.11 1.13 1.13 1.10 1.10 1.14 1.15 1.15 1.16 1.21 1.21 1.17 1.11 1.08 1.13 1.12 1.08 1.03 1.04 1.12 1.17 1.10 0.95 0.83 0.66 0.67 0.72 0.82 0.91 0.99 0.92 0.84 0.89
1.19 1.23 1.21 1.19 1.16 1.13 1.09 1.10 1.11 1.14 1.14 1.13 1.16 1.19 1.25 1.26 1.27 1.20 1.12 1.09 1.11 1.14 1.13 1.08 1.01 0.97 0.95 0.88 0.84 0.79 0.70 0.78 0.86 0.88 0.91 0.94 0.90 0.87
1.12 1.11 1.07 1.02 1.00 1.00 1.00 0.98 0.98 0.99 1.01 1.08 1.08 1.09 1.15 1.14 1.10 1.07 1.08 1.08 1.09 1.15 1.07 0.91 0.87 0.94 1.10 1.22 1.04 0.80 0.76 0.77 0.88 0.96 1.02 1.10 1.07 1.02
1.03 0.97 0.96 0.93 0.93 0.94 0.94 0.92 0.91 0.93 0.98 1.07 1.08 1.06 1.08 1.06 1.01 1.01 1.06 1.09 1.07 1.07 1.08 1.05 1.14 1.21 1.24 1.19 1.02 0.87 0.88 0.96 1.00 1.03 1.04 1.00 0.98 0.92
0.94 0.91 0.89 0.85 0.83 0.83 0.84 0.86 0.89 0.95 0.98 1.04 1.08 1.10 1.12 1.09 1.03 1.03 1.07 1.12 1.13 1.15 1.27 1.32 1.27 1.22 1.16 1.16 1.13 1.06 1.04 1.13 1.24 1.24 1.16 0.99 0.75 0.61